SDO

Last updated on Wed Apr 08 2026 00:03:23 GMT+0000 (Coordinated Universal Time)

1 36395U 10005A 26097.45151846 -.00000057 00000+0 00000+0 0 9991 2 36395 34.5041 87.4091 0000510 19.8579 149.2373 1.00274214 59351
UTC large
Height (km)
Speed (km/s)
/
Latitude / Longitude
Inclination (degrees)
Orbital Period (minutes)
Azimuth
Elevation
Range (km)
Doppler Factor

Next 0 passes for location: London (51.5072 / 0.1276)

Sorry there are no passes over London.
SDO